When you browse on this site, cookies collect data to enhance your experience and personalize the content and advertising you see.
Visit our Privacy Policy to learn more. By continuing to use the site, you agree to this use of cookies and data.

Hourly Weather Radomyshl

Today, 23 September, Wednesday

Time Temperature Precipitation Wind Pressure Humidity
00:00 +14°C° 0 mm 2 mps 750 mmHg 45%
01:00 +14°C° 0 mm 2 mps 750 mmHg 44%
02:00 +13°C° 0 mm 2 mps 750 mmHg 43%
03:00 +13°C° 0 mm 2 mps 750 mmHg 43%
04:00 +12°C° 0 mm 2 mps 750 mmHg 44%
05:00 +12°C° 0 mm 2 mps 750 mmHg 44%
06:00 +13°C° 0 mm 2 mps 749 mmHg 45%
07:00 +13°C° 0 mm 3 mps 749 mmHg 47%
08:00 +16°C° 0 mm 3 mps 749 mmHg 48%
09:00 +18°C° 0 mm 3 mps 749 mmHg 42%
10:00 +20°C° 0 mm 4 mps 749 mmHg 35%
11:00 +22°C° 0 mm 4 mps 749 mmHg 29%
12:00 +23°C° 0 mm 4 mps 749 mmHg 27%
13:00 +25°C° 0 mm 4 mps 748 mmHg 25%
14:00 +25°C° 0 mm 4 mps 748 mmHg 24%
15:00 +24°C° 0 mm 3 mps 748 mmHg 28%
16:00 +22°C° 0 mm 3 mps 747 mmHg 32%
17:00 +21°C° 0 mm 2 mps 747 mmHg 36%
18:00 +19°C° 0 mm 2 mps 747 mmHg 35%
19:00 +17°C° 0 mm 2 mps 747 mmHg 35%
20:00 +16°C° 0 mm 2 mps 747 mmHg 35%
21:00 +15°C° 0 mm 2 mps 747 mmHg 35%
22:00 +14°C° 0 mm 2 mps 747 mmHg 35%
23:00 +14°C° 0 mm 2 mps 747 mmHg 35%

Tomorrow, 24 September, Thursday

Time Temperature Precipitation Wind Pressure Humidity
00:00 +14°C° 0 mm 2 mps 747 mmHg 38%
01:00 +13°C° 0 mm 2 mps 747 mmHg 41%
02:00 +13°C° 0 mm 2 mps 747 mmHg 43%
03:00 +13°C° 0 mm 2 mps 747 mmHg 45%
04:00 +13°C° 0 mm 2 mps 747 mmHg 47%
05:00 +12°C° 0 mm 2 mps 746 mmHg 50%
06:00 +13°C° 0 mm 2 mps 747 mmHg 50%
07:00 +14°C° 0 mm 3 mps 747 mmHg 50%
08:00 +16°C° 0 mm 3 mps 747 mmHg 50%
09:00 +18°C° 0 mm 3 mps 747 mmHg 46%
10:00 +20°C° 0 mm 4 mps 747 mmHg 43%
11:00 +22°C° 0 mm 4 mps 747 mmHg 39%
12:00 +23°C° 0 mm 4 mps 746 mmHg 37%
13:00 +25°C° 0 mm 4 mps 746 mmHg 34%
14:00 +26°C° 0 mm 3 mps 746 mmHg 32%
15:00 +25°C° 0 mm 3 mps 746 mmHg 36%
16:00 +24°C° 0 mm 2 mps 746 mmHg 40%
17:00 +23°C° 0 mm 1 mps 745 mmHg 44%
18:00 +21°C° 0 mm 1 mps 746 mmHg 46%
19:00 +20°C° 0 mm 1 mps 746 mmHg 47%
20:00 +18°C° 0 mm 1 mps 746 mmHg 49%
21:00 +18°C° 0 mm 1 mps 746 mmHg 50%
22:00 +16°C° 0 mm 1 mps 746 mmHg 51%
23:00 +16°C° 0 mm 2 mps 746 mmHg 52%

Day after tomorrow, 25 September, Friday

Time Temperature Precipitation Wind Pressure Humidity
00:00 +15°C° 0 mm 2 mps 746 mmHg 52%
01:00 +15°C° 0 mm 2 mps 746 mmHg 53%
02:00 +15°C° 0 mm 2 mps 746 mmHg 53%
03:00 +15°C° 0 mm 2 mps 745 mmHg 54%
04:00 +14°C° 0 mm 2 mps 745 mmHg 55%
05:00 +14°C° 0 mm 2 mps 745 mmHg 56%
06:00 +15°C° 0 mm 2 mps 745 mmHg 55%
07:00 +16°C° 0 mm 2 mps 745 mmHg 53%
08:00 +18°C° 0 mm 3 mps 745 mmHg 52%
09:00 +20°C° 0 mm 3 mps 745 mmHg 47%
10:00 +22°C° 0 mm 4 mps 745 mmHg 42%
11:00 +25°C° 0 mm 4 mps 744 mmHg 37%
12:00 +26°C° 0 mm 4 mps 744 mmHg 36%
13:00 +27°C° 0 mm 5 mps 744 mmHg 35%
14:00 +28°C° 0 mm 5 mps 744 mmHg 33%
15:00 +27°C° 0 mm 4 mps 743 mmHg 37%
16:00 +26°C° 0 mm 4 mps 743 mmHg 41%
17:00 +25°C° 0 mm 3 mps 743 mmHg 45%
18:00 +22°C° 0 mm 3 mps 742 mmHg 47%
19:00 +21°C° 0 mm 4 mps 742 mmHg 50%
20:00 +19°C° 0 mm 4 mps 742 mmHg 52%
21:00 +19°C° 0 mm 4 mps 742 mmHg 53%
22:00 +18°C° 0 mm 4 mps 742 mmHg 54%
23:00 +18°C° 0 mm 4 mps 742 mmHg 55%

26 September, Saturday

Time Temperature Precipitation Wind Pressure Humidity
00:00 +18°C° 0 mm 4 mps 742 mmHg 55%
01:00 +17°C° 0 mm 4 mps 742 mmHg 55%
02:00 +17°C° 0 mm 3 mps 741 mmHg 55%
03:00 +15°C° 0 mm 4 mps 741 mmHg 59%
04:00 +15°C° 0 mm 4 mps 741 mmHg 62%
05:00 +15°C° 0 mm 4 mps 741 mmHg 65%
06:00 +17°C° 0 mm 4 mps 741 mmHg 64%
07:00 +17°C° 0 mm 5 mps 741 mmHg 63%
08:00 +19°C° 0 mm 5 mps 741 mmHg 62%
09:00 +21°C° 0 mm 6 mps 741 mmHg 56%
10:00 +23°C° 0 mm 7 mps 741 mmHg 51%
11:00 +26°C° 0 mm 7 mps 741 mmHg 45%
12:00 +27°C° 0 mm 7 mps 741 mmHg 42%
13:00 +27°C° 0 mm 7 mps 741 mmHg 40%
14:00 +28°C° 0 mm 7 mps 740 mmHg 37%
15:00 +27°C° 0 mm 7 mps 740 mmHg 39%
16:00 +26°C° 0 mm 6 mps 740 mmHg 41%
17:00 +25°C° 0 mm 5 mps 739 mmHg 43%
18:00 +23°C° 0 mm 6 mps 739 mmHg 43%
19:00 +23°C° 0 mm 6 mps 739 mmHg 44%
20:00 +22°C° 0 mm 6 mps 739 mmHg 45%
21:00 +22°C° 0 mm 6 mps 739 mmHg 47%
22:00 +22°C° 0 mm 6 mps 739 mmHg 48%
23:00 +22°C° 0 mm 6 mps 739 mmHg 50%

27 September, Sunday

Time Temperature Precipitation Wind Pressure Humidity
00:00 +22°C° 0 mm 6 mps 738 mmHg 52%
01:00 +21°C° 0 mm 6 mps 738 mmHg 53%
02:00 +21°C° 0 mm 6 mps 738 mmHg 55%
03:00 +20°C° 0 mm 6 mps 738 mmHg 55%
04:00 +20°C° 0 mm 7 mps 738 mmHg 54%
05:00 +20°C° 0 mm 7 mps 737 mmHg 54%
06:00 +20°C° 0 mm 8 mps 737 mmHg 56%
07:00 +19°C° 0 mm 9 mps 737 mmHg 58%
08:00 +21°C° 0 mm 9 mps 737 mmHg 61%
09:00 +19°C° 0.3 mm 10 mps 737 mmHg 62%
10:00 +19°C° 0.3 mm 10 mps 737 mmHg 64%
11:00 +19°C° 0.3 mm 10 mps 737 mmHg 65%
12:00 +19°C° 0.6 mm 10 mps 737 mmHg 67%
13:00 +21°C° 0.6 mm 9 mps 737 mmHg 69%
14:00 +21°C° 0.6 mm 8 mps 737 mmHg 70%
15:00 +21°C° 0.3 mm 7 mps 737 mmHg 64%
16:00 +21°C° 0.3 mm 7 mps 738 mmHg 59%
17:00 +21°C° 0.3 mm 6 mps 738 mmHg 53%
18:00 +19°C° 0 mm 5 mps 739 mmHg 64%
19:00 +15°C° 0 mm 4 mps 739 mmHg 74%
20:00 +13°C° 0 mm 4 mps 740 mmHg 85%
21:00 +12°C° 0 mm 3 mps 741 mmHg 87%
22:00 +13°C° 0 mm 2 mps 742 mmHg 89%
23:00 +12°C° 0 mm 1 mps 742 mmHg 91%

28 September, Monday

Time Temperature Precipitation Wind Pressure Humidity
00:00 +12°C° 0 mm 1 mps 743 mmHg 89%
01:00 +12°C° 0 mm 1 mps 743 mmHg 88%
02:00 +12°C° 0 mm 1 mps 743 mmHg 86%
03:00 +11°C° 0 mm 1 mps 744 mmHg 87%
04:00 +11°C° 0 mm 1 mps 744 mmHg 88%
05:00 +10°C° 0 mm 0 mps 744 mmHg 88%
06:00 +12°C° 0 mm 1 mps 744 mmHg 84%
07:00 +13°C° 0 mm 1 mps 745 mmHg 80%
08:00 +14°C° 0 mm 1 mps 745 mmHg 77%
09:00 +15°C° 0.1 mm 1 mps 745 mmHg 72%
10:00 +16°C° 0.1 mm 1 mps 745 mmHg 67%
11:00 +18°C° 0.1 mm 1 mps 746 mmHg 63%
12:00 +18°C° 0.3 mm 1 mps 746 mmHg 64%
13:00 +18°C° 0.3 mm 1 mps 746 mmHg 65%
14:00 +18°C° 0.3 mm 1 mps 746 mmHg 66%
15:00 +16°C° 0 mm 1 mps 746 mmHg 65%
16:00 +16°C° 0 mm 1 mps 746 mmHg 65%
17:00 +16°C° 0 mm 1 mps 746 mmHg 65%
18:00 +15°C° 0 mm 1 mps 746 mmHg 67%
19:00 +14°C° 0 mm 1 mps 746 mmHg 70%
20:00 +12°C° 0 mm 0 mps 746 mmHg 73%
21:00 +13°C° 0 mm 1 mps 746 mmHg 74%
22:00 +12°C° 0 mm 1 mps 746 mmHg 75%
23:00 +12°C° 0 mm 1 mps 746 mmHg 75%
Show more